Regional Weather Roundup
Issued by NWS

Home | Current Version | Previous Version | Text Only | Print | Product List | Glossary Off
Versions: 1 2 3 4 5 6 7 8 9 10 11 12 13 14 15 16 17 18 19 20 21 22 23 24 25 26 27 28 29 30 31 32 33 34 35 36 37 38 39 40 41 42 43 44 45 46 47 48 49 50

000
ASUS43 KLSX 170459
RWRMO

WEATHER SUMMARY FOR MISSOURI
NATIONAL WEATHER SERVICE SPRINGFIELD MO
1200 AM CDT THU APR 17 2014

NOTE: "FAIR" INDICATES FEW OR NO CLOUDS BELOW 12,000 FEET WITH NO
       SIGNIFICANT WEATHER AND/OR OBSTRUCTIONS TO VISIBILITY.
       CURRENT SKY AND/OR WEATHER CONDITIONS ARE NOT AVAILABLE FOR
       CHILLICOTHE AND FARMINGTON.

MOZ001>031-035>038-043-044-053-054-170600-
...NORTHERN AND WESTERN MISSOURI...

CITY           SKY/WX    TMP DP  RH WIND       PRES   REMARKS
KANSAS CTY INT MOCLDY    44  32  62 NW14      30.07R
KANSAS C DTWN  PTCLDY    49  33  54 NW12G17   30.06R
LEE`S SUMMIT   CLEAR     52  36  54 NW15      30.05R
ST JOSEPH      CLOUDY    42  32  67 NW12      30.10R
CHILLICOTHE      N/A     52  36  54 W9        30.03R
KIRKSVILLE     PTCLDY    48  30  49 S7        29.99R

$$
MOZ066>068-077>081-088>096-101>105-170600-
...SOUTHWEST MISSOURI...

CITY           SKY/WX    TMP DP  RH WIND       PRES   REMARKS
SPRINGFIELD    CLEAR     49  30  48 S14       30.07R
JOPLIN         CLEAR     52  31  44 S15       30.05R

$$
MOZ032>034-039>042-045>050-055>058-069>072-170600-
...CENTRAL MISSOURI...

CITY           SKY/WX    TMP DP  RH WIND       PRES   REMARKS
COLUMBIA       PTCLDY    50  29  44 S16       30.05R
JEFFERSON CITY PTCLDY    50  28  42 SE9       30.07R
ROLLA          CLEAR     46  29  51 S13       30.08S
SEDALIA        CLEAR     52  30  43 S13       30.03R
OSAGE BEACH    CLEAR     48  27  43 S9G16     30.08R

$$
MOZ051-052-059>065-170600-
...EAST CENTRAL MISSOURI...

CITY           SKY/WX    TMP DP  RH WIND       PRES   REMARKS
ST LOUIS INTL  PTCLDY    50  27  40 S10       30.14S
SPIRIT OF STL  CLEAR     48  26  42 VRB5      30.12S
ST CHARLES     CLEAR     45  31  58 SE12      30.12S

$$
MOZ072>076-082>087-097>100-106>115-170600-
...SOUTH CENTRAL AND SOUTHEAST MISSOURI...

CITY           SKY/WX    TMP DP  RH WIND       PRES   REMARKS
CAPE GIRARDEAU CLEAR     41  37  86 SE6       30.16R
FARMINGTON     CLEAR     45  28  53 CALM      30.18R
POPLAR BLUFF   CLEAR     43  35  73 SE3       30.15R
WEST PLAINS    CLEAR     40  29  64 S5        30.15R

$$



USA.gov is the U.S. government's official web portal to all federal, state and local government web resources and services.